Location: Multiple Mirror Telescope
(31.6889°N, 110.8853°W)
Time: 06:23:32
(UTC-07:00)

ISS - Pass Details

Date: 16 April 2026
Orbit: 414 x 424 km, 51.6° (Epoch: 18 May)

Event Time Altitude Azimuth Distance (km) Brightness Sun altitude
Exits shadow 04:06:43 17° 140° (SE) 1,117 -1.5 -22.2°
Maximum altitude 04:07:15 18° 127° (SE) 1,094 -1.4 -22.1°
Drops below altitude 10° 04:09:38 10° 82° (E) 1,495 0.0 -21.6°
Sets 04:12:10 0° 63° (ENE) 2,365 1.6 -21.1°
